Zurück zum Katalog

STARLINK-35001

AktivKommunikationSSO
NORAD 65280·PAYLOAD·🇺🇸 United States

Gestartet Aug 22, 2025 von Vandenberg Space Force Base

Loading…

Nächste Überflüge (nächste 24 Stunden)

TLE

AktuellSource: CelesTrak SupGP

Epoche: Sep 14, 2026, 20:50 UTC

1 65280C 25184H   26257.86854167 -.00039692  00000+0 -12325-2 0  2570
2 65280  97.2834 305.8449 0001153  96.0061 358.1810 15.33451085    13

Verfolge STARLINK-35001 in Echtzeit mit AllMySat

Download on the App Store